sat.trackr.live / text

‹ back to catalog

FENGYUN 2G

NORAD 40367 · 2014-090A

PAYLOAD ACTIVE UNKNOWN

§ Identity

Operator
Country
PRC
Launch date
2014-12-31
Launch site
XICLF
Launch vehicle
Mass (kg)
RCS (m²)
23.11

Purposes: comms, earth_obs

External: N2YO · Heavens-Above · Gunter

§ Orbital elements

Epoch: 2026-09-19T21:07:14.894400Z

Period
1,436.09 min
Inclination
5.8721°
Eccentricity
0.0003657
Mean motion
1.00272146 rev/d
Perigee alt
35,771.1 km
Apogee alt
35,801.9 km
Semi-major
42,164.6 km
B*
0.0000e+0
RAAN
71.6239°
Arg perigee
185.8328°
Mean anomaly
157.9227°
Rev number
4,294

§ Raw data

FENGYUN 2G1 40367U 14090A   26262.88003350 -.00000305  00000+0  00000+0 0  99962 40367   5.8721  71.6239 0003657 185.8328 157.9227  1.00272146 42944

JSON: /api/v1/satellites/40367 · /tle

For live sub-satellite position, see the globe view (requires WebGL).

§ Visibility from observer

Set your observer location to see the next 7 days of passes ≥ 10°. The values pass through the URL so the page stays shareable.

No JS? Fill the form by hand. The geolocation button needs JavaScript.